This is the latest recevied weather packets stored in our database for station/object NO3U. If no packets are shown the sender has not sent any weather packets the latest 10 day(s).
| Time | Temp. | Humidity | Pressure | Rain* | Wind** | Luminosity | Snow |
|---|---|---|---|---|---|---|---|
| 1778024434 | 21.11° C | 59% | 1007.4 hPa | 0 mm | - | 16 W/m² | - |
| 1778024131 | 21.11° C | 57% | 1007.6 hPa | 0 mm | - | 13 W/m² | - |
| 1778023829 | 21.11° C | 58% | 1007.6 hPa | 0 mm | - | 20 W/m² | - |
| 1778023527 | 21.11° C | 57% | 1007.8 hPa | 0 mm | - | 24 W/m² | - |
| 1778023224 | 21.11° C | 60% | 1007.7 hPa | 0 mm | - | 20 W/m² | - |
| 1778022921 | 21.11° C | 59% | 1007.8 hPa | 0 mm | - | 17 W/m² | - |
| 1778022619 | 21.67° C | 57% | 1007.8 hPa | 0 mm | - | 18 W/m² | - |
| 1778022316 | 21.67° C | 57% | 1007.7 hPa | 0 mm | - | 35 W/m² | - |
| 1778022013 | 21.67° C | 56% | 1007.7 hPa | 0 mm | - | 54 W/m² | - |
| 1778021710 | 21.67° C | 57% | 1007.8 hPa | 0 mm | - | 66 W/m² | - |
| 1778021406 | 21.67° C | 57% | 1007.8 hPa | 0 mm | - | 49 W/m² | - |
| 1778021103 | 21.67° C | 56% | 1007.9 hPa | 0 mm | - | 65 W/m² | - |
| 1778020800 | 21.67° C | 56% | 1008 hPa | 0 mm | - | 48 W/m² | - |
| 1778020497 | 21.67° C | 55% | 1007.9 hPa | 0 mm | - | 61 W/m² | - |
| 1778020193 | 21.67° C | 57% | 1007.8 hPa | 0 mm | - | 63 W/m² | - |
| 1778019889 | 21.67° C | 55% | 1007.8 hPa | 0 mm | - | 61 W/m² | - |
| 1778019585 | 22.22° C | 55% | 1007.9 hPa | 0 mm | - | 61 W/m² | - |
| 1778019283 | 21.67° C | 55% | 1007.8 hPa | 0 mm | - | 80 W/m² | - |
| 1778018980 | 21.67° C | 54% | 1007.9 hPa | 0 mm | - | 81 W/m² | - |
| 1778018677 | 21.67° C | 55% | 1008.2 hPa | 0 mm | - | 67 W/m² | - |
| 1778018374 | 22.22° C | 55% | 1008 hPa | 0 mm | - | 89 W/m² | - |
| 1778018072 | 22.22° C | 54% | 1008.2 hPa | 0 mm | - | 92 W/m² | - |
| 1778017770 | 22.22° C | 55% | 1008 hPa | 0 mm | - | 94 W/m² | - |
| 1778017467 | 22.22° C | 53% | 1008.2 hPa | 0 mm | - | 85 W/m² | - |
| 1778017164 | 22.22° C | 54% | 1008.2 hPa | 0 mm | - | 106 W/m² | - |
* Rain latest hour (hover to see other rain measurements)
** Current wind speed in m/s (hover to see current wind gust speed)